TimeAKDT,TemperatureF,Dew PointF,Humidity,Sea Level PressureIn,VisibilityMPH,Wind Direction,Wind SpeedMPH,Gust SpeedMPH,PrecipitationIn,Events,Conditions,WindDirDegrees,DateUTC
12:53 AM,60.1,42.1,51,30.06,10.0,North,3.5,-,N/A,,Clear,10,2013-07-22 08:53:00
1:53 AM,61.0,41.0,48,30.07,10.0,NW,3.5,-,N/A,,Clear,310,2013-07-22 09:53:00
2:53 AM,62.1,39.9,44,30.07,10.0,North,6.9,-,N/A,,Clear,360,2013-07-22 10:53:00
3:53 AM,59.0,42.1,53,30.07,10.0,North,8.1,-,N/A,,Clear,350,2013-07-22 11:53:00
4:53 AM,55.9,43.0,62,30.07,10.0,North,4.6,-,N/A,,Clear,10,2013-07-22 12:53:00
5:53 AM,57.9,41.0,53,30.08,10.0,NNE,6.9,-,N/A,,Clear,30,2013-07-22 13:53:00
6:53 AM,57.9,42.1,56,30.08,10.0,North,6.9,-,N/A,,Clear,360,2013-07-22 14:53:00
7:53 AM,61.0,44.1,54,30.09,10.0,Calm,Calm,-,N/A,,Clear,0,2013-07-22 15:53:00
8:53 AM,64.0,45.0,50,30.08,10.0,NNW,6.9,-,N/A,,Clear,330,2013-07-22 16:53:00
9:53 AM,69.1,46.0,44,30.08,10.0,Variable,3.5,-,N/A,,Clear,0,2013-07-22 17:53:00
10:53 AM,72.0,46.0,40,30.06,10.0,Variable,6.9,-,N/A,,Clear,0,2013-07-22 18:53:00
11:53 AM,75.0,45.0,34,30.06,10.0,Variable,5.8,-,N/A,,Clear,0,2013-07-22 19:53:00
12:53 PM,77.0,45.0,32,30.05,10.0,Variable,6.9,-,N/A,,Partly Cloudy,0,2013-07-22 20:53:00
1:53 PM,79.0,42.1,27,30.04,10.0,WNW,6.9,-,N/A,,Partly Cloudy,300,2013-07-22 21:53:00
2:53 PM,80.1,44.1,28,30.04,10.0,WNW,8.1,-,N/A,,Partly Cloudy,300,2013-07-22 22:53:00
3:53 PM,82.0,44.1,26,30.03,10.0,Variable,4.6,-,N/A,,Scattered Clouds,0,2013-07-22 23:53:00
4:53 PM,82.0,44.1,26,30.02,10.0,WNW,5.8,-,N/A,,Clear,290,2013-07-23 00:53:00
5:53 PM,82.0,43.0,25,30.02,10.0,WNW,5.8,-,N/A,,Clear,300,2013-07-23 01:53:00
6:53 PM,82.0,43.0,25,30.02,10.0,WNW,4.6,-,N/A,,Clear,290,2013-07-23 02:53:00
7:53 PM,82.0,43.0,25,30.02,10.0,Calm,Calm,-,N/A,,Clear,0,2013-07-23 03:53:00
8:53 PM,78.1,51.1,39,30.02,10.0,Calm,Calm,-,N/A,,Clear,0,2013-07-23 04:53:00
9:53 PM,75.0,55.9,51,30.03,10.0,Calm,Calm,-,N/A,,Clear,0,2013-07-23 05:53:00
10:53 PM,66.9,53.1,61,30.04,10.0,Calm,Calm,-,N/A,,Clear,0,2013-07-23 06:53:00
11:53 PM,60.1,53.1,78,30.05,10.0,Calm,Calm,-,N/A,,Clear,0,2013-07-23 07:53:00